Weather in Krasnoufimsk

Russia / Sverdlovsk Oblast     56°37′03″N   57°46′14″E
temp.,
°C
wind,
m/s
gust,
m/s
humid.,
%
clouds,
%
prec.,
mm/h
press.,
hPa
HPBL,
m
7 march, sun
sun723:00−16wsw229890 0.1 101226
02:00−18sw129876 0.0 101220
05:00−19ssw129969 0.1 101220
08:00−20ssw1210057 0.0 101120
11:00−14wsw138974 0.1 1010365
14:00−11wnw2381100 0.1 1009837
17:00−11wnw2484100 0.3 1008709
20:00−16w2395100 0.1 100956
8 march, mon
mon823:00−18wsw239861 0.1 101061
02:00−20sw2310065 0.0 100936
05:00−20sse2310078 0.0 100855
08:00−17se3597100 0.1 1005186
11:00−12s4991100 0.4 1002677
14:00−8ssw61089100 0.4 1000982
17:00−5ssw61191100 0.9 998998
20:00−8sw6157733 0.5 999663
9 march, tue
tue923:00−9sw5138931 0.5 1001525
02:00−10sw5119078 0.0 1001395
05:00−11ssw239489 0.1 100192
08:00−9wsw1397100 0.7 1000147
11:00−7w5987100 1.4 1003760
14:00−7w5884100 0.1 1007893
17:00−8w4785100 0.1 1009813
20:00−13wsw2395100 0.1 101028
10 march, wed
wed1023:00−15w129699 0.1 101120
02:00−16n1198100 0.0 101020
05:00−16nne3498100 0.1 1009141
08:00−17nne4896100 0.0 1008236
11:00−16n5994100 0.2 1006340
14:00−13nne71294100 0.8 1004582
17:00−12nne61193100 1.8 1005756
20:00−15nne61194100 1.2 1007690
11 march, thu
thu1123:00−17n61194100 1.9 1010610
02:00−19n51193100 0.2 1011485
05:00−24nnw3796100 0.2 1014237
08:00−28nw229877 0.0 101629
11:00−20nw369376 0.0 1017361
14:00−16wnw368693 0.0 1017559
17:00−14wnw478896 0.1 1018628
20:00−16w41093100 0.0 1020389